TIME,DELAY(SENSOR),PRES,OXYGEN,RAWTEMP,T(OPTODE),TCPHASE,FLUOR,BETA(BETA700),BETA(BETA412),BETA(BETA440),CDOM,C(CSC),ED(ED412.20),ED(ED444.00),ED(ED489.60),ED(ED554.30),LU(LU412.10),LU(LU443.90),LU(LU489.70),LU(LU554.70),COMP,TILTX,TILTY,CHECK
1348024092,5808,904.4400024414062000,31.6377105712890620,559.9970703125000000,4.4859871864318850,56.8214797973632800,55,99,100,78,83,15559,0,0,0,0,2147124480,2147774930,2147579126,2147570048,3022,3,13,5309
1348027688,5810,963.5499877929688000,39.5875511169433600,565.0748901367188000,4.3285079002380370,55.6286697387695300,56,98,100,76,82,15560,0,0,0,0,2147124763,2147774674,2147575085,2147570441,338,3,13,5544
1348031288,5809,973.9099731445312000,41.2982597351074200,567.1956176757812000,4.2626738548278810,55.3913192749023440,55,99,100,79,82,15557,0,0,0,0,2147121590,2147777892,2147572589,2147567140,397,3,13,47444
1348034888,5808,981.5499877929688000,41.2954483032226560,567.4274291992188000,4.2554759979248050,55.3987083435058600,55,101,101,86,82,15559,0,0,0,0,2147125202,2147781092,2147580352,2147568822,250,3,13,45315
1348038488,5811,990.3099975585938000,40.5146484375000000,567.6234741210938000,4.2493858337402340,55.5145606994628900,55,97,101,78,81,15555,0,0,0,0,2147121508,2147773376,2147577499,2147568091,3385,3,12,35839
1348042088,5811,994.3099975585938000,40.1613998413085940,567.0184936523438000,4.2681751251220700,55.5566596984863300,55,98,100,78,83,15557,0,0,0,0,2147124845,2147772150,2147576594,2147569216,3422,3,13,3905
1348045688,5809,993.5700073242188000,40.0545616149902340,567.1326904296875000,4.2646288871765140,55.5793190002441400,54,99,100,78,82,15556,0,0,0,0,2147121728,2147774107,2147577645,2147565924,513,3,13,17680
1348049288,5810,999.2500000000000000,39.5976181030273440,566.9110107421875000,4.2715129852294920,55.6395111083984400,54,99,100,79,82,15553,0,0,0,0,2147127616,2147768621,2147576749,2147570468,3404,3,13,61333
1348052888,5811,997.3800048828125000,39.8244514465332000,567.1375732421875000,4.2644748687744140,55.6121597290039060,54,104,101,79,83,15554,0,0,0,0,2147124525,2147773696,2147575469,2147569654,15,3,13,37648
1348056488,5808,1002.9600219726562000,39.8609313964843750,567.0917968750000000,4.2659001350402830,55.6021118164062500,55,99,102,79,82,15545,0,0,0,0,2147125412,2147777261,2147571684,2147572443,3436,3,13,41666
1348060088,5808,998.8099975585938000,39.7547912597656250,567.2880859375000000,4.2598037719726560,55.6247596740722660,55,100,100,77,82,15555,0,0,0,0,2147122057,2147773056,2147573174,2147568758,279,3,13,34814
1348063688,5808,1002.8599853515625000,39.9843788146972660,567.2902832031250000,4.2597370147705080,55.5909805297851560,55,98,100,77,82,15553,0,0,0,0,2147122102,2147771666,2147574610,2147569481,230,3,13,42753
1348067288,5810,999.8200073242188000,39.6383094787597660,567.3378295898438000,4.2582612037658690,55.6433601379394500,55,97,101,77,82,15552,0,0,0,0,2147122395,2147771611,2147574290,2147570340,301,3,13,46997
1348070888,5810,996.9699707031250000,39.6763801574707000,568.0999145507812000,4.2345938682556150,55.6418304443359400,54,100,99,78,83,15552,0,0,0,0,2147124242,2147770102,2147574793,2147570358,244,3,13,36319
1348074488,5810,998.2199707031250000,39.9710197448730500,568.0938720703125000,4.2347769737243650,55.6005210876464840,56,99,100,78,84,15551,0,0,0,0,2147122212,2147773778,2147573193,2147571254,90,3,13,13754
1348078088,5810,1001.7199707031250000,39.8512802124023440,568.3843994140625000,4.2257561683654785,55.6210517883300800,55,99,101,78,82,15551,0,0,0,0,2147123282,2147770944,2147571620,2147569216,3568,3,13,23607
1348081688,5810,1002.8300170898438000,39.7846717834472660,568.0236816406250000,4.2369580268859860,55.6291999816894500,55,98,100,77,82,15552,0,0,0,0,2147123693,2147775140,2147572004,2147572205,3498,3,13,7688
1348085288,5807,1007.4500122070312000,39.4829292297363300,567.8447265625000000,4.2425169944763180,55.6670188903808600,56,100,100,78,83,15552,0,0,0,0,2147123666,2147770139,2147575158,2147571081,2856,3,13,42884
1348088888,5809,1005.7299804687500000,39.3985710144043000,567.2374267578125000,4.2613768577575680,55.6730690002441400,54,99,100,77,82,15553,0,0,0,0,2147124443,2147771154,2147572891,2147571163,58,3,13,50305
1348092488,5810,1006.0900268554688000,39.1898689270019500,567.9959716796875000,4.2378201484680180,55.7138290405273440,56,98,101,78,82,15552,0,0,0,0,2147120393,2147769600,2147572379,2147572178,9,3,13,19374
1348096088,5809,1012.5100097656250000,39.8512687683105500,567.2130126953125000,4.2621359825134280,55.6094703674316400,56,99,100,77,83,15549,0,0,0,0,2147122742,2147770505,2147572150,2147569170,240,3,13,40934
1348099688,5811,1006.4799804687500000,39.0120201110839840,567.3878173828125000,4.2567062377929690,55.7349510192871100,55,98,101,78,81,15544,0,0,0,0,2147119689,2147776192,2147567012,2147570395,410,3,12,64596
1348103288,5808,1005.2600097656250000,39.1591796875000000,567.9445800781250000,4.2394161224365230,55.7197608947753900,54,100,101,78,83,15550,0,0,0,0,2147119963,2147773842,2147576859,2147570816,280,3,13,53332
1348106888,5810,1006.3699951171875000,39.2655601501464840,568.0217895507812000,4.2370190620422360,55.7035903930664060,56,98,102,78,82,15552,0,0,0,0,2147125613,2147775689,2147577014,2147570093,262,3,13,60072
1348110488,5809,1007.5999755859375000,38.8067092895507800,568.0327148437500000,4.2366790771484375,55.7742385864257800,55,97,101,78,84,15553,0,0,0,0,2147121984,2147774464,2147571629,2147570386,3535,3,13,53719
1348114088,5811,1013.5900268554688000,39.2358398437500000,567.8123779296875000,4.2435231208801270,55.7088813781738300,54,98,100,77,83,15548,0,0,0,0,2147122733,2147770834,2147577965,2147570422,3264,3,13,46448
1348117688,5809,1003.1900024414062000,38.8218193054199200,567.9833984375000000,4.2382111549377440,55.7691688537597660,55,98,100,78,83,15551,0,0,0,0,2147123419,2147777042,2147577051,2147569417,221,3,13,59611
1348121288,5812,999.0100097656250000,38.7717514038085940,568.9187011718750000,4.2091579437255860,55.7865409851074200,56,98,101,78,82,15547,0,0,0,0,2147123273,2147773650,2147575140,2147571730,3461,3,13,10410
1348124888,5811,999.5300292968750000,38.9395294189453100,568.8046264648438000,4.2127017974853520,55.7620201110839840,55,99,102,78,83,15548,0,0,0,0,2147123894,2147775744,2147572150,2147569801,746,3,13,35498
1348128488,5809,1002.1599731445312000,37.9642906188964840,569.1691284179688000,4.2013797760009770,55.9147796630859400,55,98,102,77,82,15549,0,0,0,0,2147121764,2147774217,2147577353,2147569865,675,3,12,8463
1348132088,5811,1007.2800292968750000,38.8634300231933600,568.0806274414062000,4.2351927757263180,55.7634315490722660,56,98,101,78,83,15548,0,0,0,0,2147124918,2147775460,2147572361,2147573385,254,3,13,39589
1348135688,5811,1001.5499877929688000,38.6837196350097660,568.2968750000000000,4.2284722328186035,55.7968902587890600,55,97,101,78,84,15548,0,0,0,0,2147124251,2147774939,2147573074,2147571218,29,3,12,3312
1348139288,5812,1010.6699829101562000,39.0943908691406250,568.2440185546875000,4.2301177978515625,55.7306404113769500,55,97,100,77,83,15548,0,0,0,0,2147122651,2147773568,2147575588,2147569490,346,3,13,54650
1348142888,5810,1011.4199829101562000,39.6501502990722660,567.3223266601562000,4.2587409019470215,55.6427803039550800,55,99,101,78,83,15543,0,0,0,0,2147122989,2147774537,2147574162,2147572260,3291,3,13,59301
1348146488,5808,1018.3099975585938000,39.1021003723144500,567.1464233398438000,4.2642040252685550,55.7176589965820300,55,100,101,79,82,15545,0,0,0,0,2147121691,2147773842,2147577691,2147568612,346,3,13,21331
1348150088,5810,1011.2899780273438000,38.5955505371093750,567.1414794921875000,4.2643570899963380,55.7948799133300800,56,98,101,78,82,15543,0,0,0,0,2147123739,2147771968,2147574966,2147571904,3526,3,13,11289
1348153688,5809,1007.6699829101562000,39.2195091247558600,568.2227783203125000,4.2307758331298830,55.7157707214355500,55,99,101,77,83,15545,0,0,0,0,2147119872,2147769078,2147573824,2147570203,200,3,13,7763
1348157288,5807,1003.8499755859375000,38.9586296081543000,568.0606079101562000,4.2358131408691410,55.7507286071777340,55,100,101,78,82,15545,0,0,0,0,2147122944,2147768493,2147569938,2147569133,2958,3,13,55007
1348160888,5811,1005.2600097656250000,38.9079895019531250,568.0673828125000000,4.2356028556823730,55.7558097839355500,55,100,100,77,82,15546,0,0,0,0,2147127241,2147773577,2147572836,2147572626,2954,3,13,13619
1348164488,5806,1009.6099853515625000,38.8039283752441400,568.1159057617188000,4.2340950965881350,55.7761116027832000,55,100,100,77,84,15545,0,0,0,0,2147125458,2147774985,2147570797,2147571520,3293,3,13,39811
1348168088,5809,1013.6199951171875000,39.0067214965820300,568.1409912109375000,4.2333159446716310,55.7458992004394500,55,99,101,78,84,15539,0,0,0,0,2147124260,2147777526,2147577682,2147571145,3104,3,13,62206
1348169156,5808,1008.5599975585938000,39.5678291320800800,568.1854248046875000,4.2319359779357910,55.6604499816894500,55,98,102,77,83,15548,0,0,0,0,2147127433,2147770340,2147575250,2147571574,164,3,13,42967
